星链-1344 (STARLINK-1344 )

导读 | 豆包AI

STARLINK-1344是美国SpaceX星链卫星互联网项目的卫星,于2020年4月22日8点发射,属于星链低轨星座组网卫星,运行在近地轨道,为全球提供低延迟宽带互联网服务,是星链首批组网批量卫星之一,承担全球网络覆盖的组网建设任务,推动了低轨卫星互联网的发展。

Basic Information
目录编号:
45559
目录名称:
STARLINK-1344
国际标识:
2020-025AE
轨道中心:
EARTH
卫星名称:
星链-1344
卫星全名:
星链-1344 (STARLINK-1344 )
卫星状态:
已陨落 最后检测时间 2024-09-19
发射日期:
2020-04-22 UTC
国别 :
美国 (US)
星等 :
--
Orbit Information
数据来源 国际轨道数据
星历时间: 2024-09-19T21:39:20+0800
轨道信息已过期540天
半长轴: 6538.117km
偏心率: 0.0002167
轨道倾角: 53.031°
近地点辐角 317.530°
升交点赤经 261.003°
平近点角 151.256°
近地点: 158.565km
远地点: 161.399km
周期: 87.688分钟
每日圈数: 16.421915
Detailed Information
固有亮度:
5
最大亮度:
2.5
卫星平台:
Starlink V1.0
覆盖范围:
全球
运营商:
太空探索技术公司
运营商所在国:
美国
制造商(研发单位):
太空探索技术公司
制造商所在国:
美国
使用方式:
暂无
Satellite Introduction
星链(Starlink)计划是由太空探索技术公司(SpaceX)提出的一个巨型低轨卫星互联网星座项目,计划在2019年至2024年间在太空搭建由约1.2万颗卫星组成的“星链”网络,其中1584颗将部署在地球上空550千米处的近地轨道,并从2020年开始工作。该卫星仍在工作。